{"data":{"norad_id":63070,"epoch":"2026-09-20T23:44:17.723328Z","epoch_age_seconds":119967,"freshness":"FRESH","line1":"1 63070U 25035U   26263.98909402  .00008971  00000+0  33505-3 0  9994","line2":"2 63070  42.9998 124.5331 0000454 291.1108  68.9695 15.27588110 89584","mean_motion":15.2758811,"eccentricity":4.54e-5,"inclination_deg":42.9998,"raan_deg":124.5331,"arg_perigee_deg":291.1108,"mean_anomaly_deg":68.9695,"bstar":0.00033505,"rev_number":8958,"period_min":94.26624824934,"perigee_km":482.71331514327,"apogee_km":483.33630863579,"semimajor_km":6861.1618118895,"source":"CELESTRAK","updated_at":"2026-09-22T09:00:49.754744Z"}}